EW2348 Weather Reports


Display with metric or nautical units.
time (UTC)temp
F
wind
direction
speed
MPH
gust
MPH
rain 1hr
in
rain 24hr
in
rain mn
in
humidity
%
barometer
mb
20180222043246 44 260 3.0 7.0 0.01 0.44 0.44 98 1029.5
20180222043145 44 257 3.0 7.0 0.01 0.44 0.44 98 1029.5
20180222042845 44 271 3.0 5.0 0.01 0.44 0.44 98 1029.4
20180222042745 44 270 3.0 6.0 0.01 0.44 0.44 98 1029.4
20180222042645 44 273 3.0 6.0 0.01 0.44 0.44 98 1029.5
20180222042345 44 277 3.0 6.0 0.01 0.44 0.44 98 1029.7
20180222042245 44 275 3.0 6.0 0.01 0.44 0.44 98 1029.9
20180222042045 44 289 3.0 11.0 0.01 0.44 0.44 98 1029.9
20180222041846 44 294 2.0 11.0 0.01 0.44 0.44 98 1030.0
20180222041745 44 297 5.0 11.0 0.01 0.44 0.44 98 1030.0
20180222041645 44 293 3.0 11.0 0.01 0.44 0.44 98 1029.8
20180222041445 44 289 3.0 11.0 0.02 0.44 0.44 98 1029.6
20180222041044 44 277 4.0 10.0 0.01 0.43 0.43 98 1029.7
20180222040846 44 272 4.0 10.0 0.01 0.43 0.43 98 1029.6
20180222040746 44 271 5.0 10.0 0.01 0.43 0.43 98 1029.6
20180222040645 44 274 7.0 10.0 0.01 0.43 0.43 98 1029.6
20180222040445 44 278 7.0 10.0 0.02 0.43 0.43 98 1029.9
20180222040345 44 280 7.0 10.0 0.02 0.43 0.43 98 1029.8
20180222040245 44 284 7.0 10.0 0.02 0.43 0.43 98 1029.8
20180222040145 44 292 7.0 10.0 0.02 0.43 0.43 98 1029.8
20180222035945 44 308 7.0 10.0 0.02 0.43 0.43 98 1029.7
20180222035745 44 310 5.0 9.0 0.02 0.43 0.43 98 1029.9
20180222035445 44 306 3.0 7.0 0.02 0.43 0.43 98 1030.0
20180222035145 44 293 5.0 7.0 0.02 0.43 0.43 98 1030.0
20180222034845 44 281 3.0 7.0 0.04 0.43 0.43 98 1030.0
20180222034745 44 281 3.0 7.0 0.04 0.43 0.43 98 1030.1
20180222034645 44 280 3.0 7.0 0.04 0.43 0.43 98 1030.1
20180222034545 44 275 4.0 7.0 0.04 0.43 0.43 98 1030.1
20180222034045 44 272 4.0 8.0 0.04 0.43 0.43 98 1030.5
20180222033946 44 273 4.0 8.0 0.04 0.43 0.43 98 1030.5
20180222033745 44 275 3.0 8.0 0.04 0.43 0.43 98 1030.5
20180222033645 44 276 4.0 8.0 0.05 0.43 0.43 98 1030.6
20180222033545 44 282 3.0 8.0 0.05 0.43 0.43 98 1030.6
20180222033445 44 285 2.0 8.0 0.05 0.43 0.43 98 1030.8
20180222033344 44 286 3.0 8.0 0.05 0.43 0.43 98 1030.9
20180222032745 44 283 2.0 5.0 0.06 0.43 0.43 98 1030.5
20180222032645 44 280 2.0 5.0 0.06 0.43 0.43 98 1030.5
20180222032545 44 280 2.0 5.0 0.06 0.43 0.43 98 1030.4
20180222032446 44 278 2.0 5.0 0.06 0.43 0.43 98 1030.5
20180222032345 44 276 3.0 5.0 0.06 0.43 0.43 98 1030.5
20180222032145 44 271 2.0 5.0 0.07 0.43 0.43 98 1030.4
20180222031945 44 270 3.0 5.0 0.07 0.43 0.43 98 1030.4
20180222031844 44 270 1.0 5.0 0.07 0.43 0.43 98 1030.3
20180222031744 44 270 3.0 5.0 0.07 0.43 0.43 98 1030.4
20180222031445 44 274 3.0 5.0 0.06 0.41 0.41 98 1030.4
20180222031345 44 274 2.0 7.0 0.07 0.41 0.41 98 1030.1
20180222031145 44 286 2.0 7.0 0.07 0.41 0.41 98 1030.2
20180222030944 44 290 2.0 7.0 0.07 0.41 0.41 98 1030.5
20180222030345 44 290 4.0 9.0 0.06 0.40 0.40 98 1030.0
20180222030245 44 283 3.0 11.0 0.06 0.40 0.40 98 1030.1
20180222030045 44 278 4.0 11.0 0.06 0.40 0.40 98 1030.3
20180222025845 44 279 5.0 11.0 0.06 0.40 0.40 98 1030.4
20180222025645 44 276 3.0 11.0 0.06 0.40 0.40 98 1030.1
20180222025344 44 282 6.0 11.0 0.07 0.40 0.40 98 1030.1
20180222025245 44 286 5.0 7.0 0.07 0.40 0.40 98 1030.2
20180222025145 44 284 3.0 7.0 0.07 0.40 0.40 98 1030.4
20180222025045 44 286 3.0 7.0 0.07 0.40 0.40 98 1030.4
20180222024445 45 268 4.0 7.0 0.06 0.39 0.39 97 1030.6
20180222024345 45 265 4.0 7.0 0.06 0.39 0.39 97 1030.4
20180222024145 45 254 3.0 11.0 0.06 0.39 0.39 97 1030.3
20180222024045 45 255 2.0 11.0 0.06 0.39 0.39 97 1030.2
20180222023844 45 259 3.0 11.0 0.06 0.39 0.39 97 1030.2
20180222023445 45 271 3.0 11.0 0.05 0.38 0.38 97 1030.1
20180222023145 45 276 5.0 11.0 0.05 0.38 0.38 97 1030.2
20180222022745 45 272 5.0 11.0 0.04 0.37 0.37 97 1030.5
20180222022645 45 269 4.0 11.0 0.04 0.37 0.37 97 1030.4
20180222022545 45 270 1.0 11.0 0.04 0.37 0.37 97 1030.3
20180222022445 45 271 3.0 11.0 0.04 0.37 0.37 97 1030.2
20180222022344 45 277 5.0 11.0 0.04 0.37 0.37 97 1030.0
20180222022145 45 286 3.0 7.0 0.02 0.35 0.35 97 1029.9
20180222022045 45 287 3.0 10.0 0.02 0.35 0.35 97 1030.0
20180222021945 45 287 4.0 10.0 0.02 0.35 0.35 97 1029.9
20180222021845 45 288 5.0 10.0 0.02 0.35 0.35 97 1030.0
20180222021545 45 294 3.0 10.0 0.02 0.35 0.35 97 1030.1
20180222021445 45 291 3.0 10.0 0.01 0.34 0.34 97 1029.8
20180222021345 45 285 4.0 10.0 0.01 0.34 0.34 97 1029.8
20180222021145 45 279 7.0 10.0 0.01 0.34 0.34 97 1029.7
20180222020944 45 278 3.0 8.0 0.01 0.34 0.34 97 1030.0
20180222020845 45 276 4.0 8.0 0.01 0.34 0.34 97 1030.0
20180222020745 45 271 5.0 8.0 0.01 0.34 0.34 97 1029.8
20180222020445 45 268 4.0 6.0 0.01 0.34 0.34 97 1030.1
20180222020344 45 268 4.0 6.0 0.01 0.34 0.34 97 1029.6
20180222020246 45 270 4.0 8.0 0.01 0.34 0.34 97 1029.6
20180222020146 45 275 4.0 8.0 0.01 0.34 0.34 97 1029.6
20180222020046 45 275 4.0 8.0 0.01 0.34 0.34 97 1029.6
20180222015945 45 276 4.0 8.0 0.01 0.34 0.34 97 1029.5
20180222015845 45 276 5.0 8.0 0.01 0.34 0.34 97 1029.8
20180222015645 45 277 3.0 8.0 0.00 0.33 0.33 97 1029.6
20180222015545 45 279 3.0 8.0 0.00 0.33 0.33 97 1029.7
20180222015445 45 279 4.0 9.0 0.00 0.33 0.33 97 1029.5
20180222015345 45 282 3.0 9.0 0.00 0.33 0.33 97 1029.5
20180222015245 45 279 6.0 9.0 0.00 0.33 0.33 97 1029.6
20180222015045 45 274 1.0 9.0 0.00 0.33 0.33 97 1029.6
20180222014844 45 274 3.0 9.0 0.00 0.33 0.33 97 1029.6
20180222014746 45 274 3.0 9.0 0.00 0.33 0.33 97 1029.3
20180222014545 45 277 3.0 9.0 0.00 0.33 0.33 97 1029.5
20180222014445 45 280 6.0 9.0 0.00 0.33 0.33 97 1029.5
20180222014345 45 278 5.0 9.0 0.00 0.33 0.33 97 1029.7
20180222014244 45 279 4.0 7.0 0.00 0.33 0.33 97 1029.7
20180222014045 45 279 3.0 8.0 0.00 0.33 0.33 97 1029.7
20180222013845 45 283 5.0 8.0 0.00 0.33 0.33 97 1029.7
20180222013745 45 283 5.0 8.0 0.00 0.33 0.33 97 1029.8
20180222013645 45 281 5.0 8.0 0.00 0.33 0.33 97 1029.7
20180222013544 45 278 3.0 8.0 0.00 0.33 0.33 97 1029.8
20180222013444 45 276 3.0 8.0 0.00 0.33 0.33 97 1029.8
20180222013345 45 275 3.0 8.0 0.00 0.33 0.33 97 1029.8
20180222013245 45 277 4.0 8.0 0.00 0.33 0.33 97 1029.9
20180222013145 45 277 4.0 9.0 0.00 0.33 0.33 97 1029.9
20180222012745 45 273 3.0 10.0 0.00 0.33 0.33 97 1029.8
20180222012644 45 273 3.0 10.0 0.00 0.33 0.33 97 1029.8
20180222012445 45 272 3.0 10.0 0.00 0.33 0.33 97 1029.9
20180222012345 45 272 3.0 10.0 0.01 0.33 0.33 97 1029.9
20180222012245 45 270 5.0 10.0 0.01 0.33 0.33 97 1029.8
20180222011944 45 270 7.0 10.0 0.01 0.33 0.33 97 1029.9
20180222011844 45 270 3.0 10.0 0.01 0.33 0.33 97 1029.7
20180222011745 45 272 5.0 10.0 0.01 0.33 0.33 97 1030.0
20180222011645 45 273 3.0 10.0 0.01 0.33 0.33 97 1030.0
20180222011545 45 274 5.0 10.0 0.01 0.33 0.33 97 1029.9
20180222011345 45 274 3.0 8.0 0.01 0.33 0.33 97 1030.4
20180222011044 45 274 3.0 8.0 0.02 0.33 0.33 97 1030.6
20180222010845 45 274 3.0 8.0 0.02 0.33 0.33 97 1030.5
20180222010645 45 270 3.0 8.0 0.04 0.33 0.33 97 1030.6
20180222010445 45 270 4.0 8.0 0.04 0.33 0.33 97 1030.4
20180222010244 45 270 3.0 7.0 0.04 0.33 0.33 97 1030.5
20180222010045 45 267 3.0 7.0 0.04 0.33 0.33 97 1030.5
20180222005945 45 267 3.0 7.0 0.04 0.33 0.33 97 1030.8
20180222005845 45 267 3.0 7.0 0.04 0.33 0.33 97 1030.7
20180222005745 45 267 4.0 7.0 0.04 0.33 0.33 97 1030.8
20180222005444 45 263 3.0 7.0 0.04 0.33 0.33 97 1030.7
20180222005344 45 261 3.0 7.0 0.04 0.33 0.33 97 1030.8
20180222005245 45 261 3.0 7.0 0.04 0.33 0.33 97 1030.7
20180222005045 46 260 3.0 5.0 0.04 0.33 0.33 97 1030.6
20180222004845 46 261 3.0 5.0 0.04 0.33 0.33 97 1030.6
20180222004744 46 260 3.0 5.0 0.04 0.33 0.33 97 1030.7
20180222004644 46 257 3.0 5.0 0.04 0.33 0.33 97 1030.8
20180222004544 46 257 1.0 5.0 0.04 0.33 0.33 97 1031.2
20180222004145 46 258 3.0 7.0 0.05 0.33 0.33 97 1030.7
20180222003845 46 254 3.0 7.0 0.05 0.33 0.33 97 1030.6
20180222003744 46 250 2.0 7.0 0.05 0.33 0.33 97 1030.8
20180222003544 46 252 1.0 7.0 0.05 0.33 0.33 97 1030.9
20180222003446 46 259 1.0 7.0 0.05 0.33 0.33 97 1030.7
20180222003345 46 262 2.0 7.0 0.05 0.33 0.33 97 1030.5
20180222003245 46 262 3.0 7.0 0.05 0.33 0.33 97 1030.5
20180222003044 46 259 2.0 7.0 0.05 0.33 0.33 97 1030.7
20180222002845 46 258 3.0 7.0 0.05 0.33 0.33 97 1030.5
20180222002745 46 263 3.0 7.0 0.05 0.33 0.33 97 1030.5
20180222002645 46 264 3.0 7.0 0.05 0.33 0.33 97 1030.4
20180222002545 46 264 3.0 7.0 0.05 0.33 0.33 97 1030.4
20180222002245 46 264 3.0 6.0 0.04 0.32 0.32 97 1030.4
20180222001845 46 270 4.0 6.0 0.05 0.32 0.32 97 1029.9
20180222001744 46 270 4.0 6.0 0.05 0.32 0.32 97 1030.0
20180222001644 46 270 4.0 6.0 0.05 0.32 0.32 97 1029.9
20180222001145 46 270 3.0 5.0 0.04 0.31 0.31 97 1030.3
20180222001045 46 270 4.0 5.0 0.04 0.31 0.31 97 1030.3
20180222000944 46 270 3.0 5.0 0.05 0.31 0.31 97 1030.4
20180222000749 46 270 4.0 5.0 0.05 0.31 0.31 97 1030.5
20180222000645 46 270 1.0 5.0 0.04 0.30 0.30 97 1030.4
20180222000446 46 270 1.0 5.0 0.04 0.30 0.30 97 1030.3
20180222000345 46 270 1.0 5.0 0.04 0.30 0.30 97 1030.2
20180222000244 46 270 1.0 5.0 0.05 0.30 0.30 97 1030.1
20180222000144 46 270 1.0 5.0 0.05 0.30 0.30 97 1030.2
20180221235845 46 270 2.0 6.0 0.05 0.30 0.30 97 1030.1
20180221235545 46 270 3.0 6.0 0.05 0.30 0.30 97 1030.0
20180221235444 46 270 4.0 6.0 0.05 0.30 0.30 97 1029.9
20180221235045 46 270 3.0 6.0 0.05 0.30 0.30 99 1030.2
20180221234844 46 266 2.0 5.0 0.05 0.30 0.30 99 1030.0
20180221234645 46 267 3.0 5.0 0.05 0.30 0.30 99 1029.9
20180221234445 46 270 3.0 5.0 0.05 0.30 0.30 99 1030.2
20180221234245 47 270 2.0 5.0 0.05 0.28 0.28 99 1029.9
20180221233944 46 269 3.0 4.0 0.05 0.28 0.28 99 1029.8
20180221233845 47 272 3.0 4.0 0.05 0.28 0.28 99 1029.8
20180221233244 46 262 1.0 4.0 0.05 0.28 0.28 99 1030.2
20180221233044 46 262 2.0 4.0 0.05 0.28 0.28 99 1030.4
20180221232945 46 262 2.0 4.0 0.05 0.28 0.28 99 1030.3
20180221232845 46 264 2.0 4.0 0.06 0.28 0.28 99 1030.4
20180221232745 47 267 1.0 4.0 0.06 0.28 0.28 99 1030.3
20180221232645 47 270 1.0 4.0 0.06 0.28 0.28 99 1030.2
20180221232545 47 270 1.0 4.0 0.06 0.28 0.28 99 1030.1
20180221232045 47 276 1.0 7.0 0.05 0.27 0.27 99 1029.7
20180221231945 47 276 3.0 7.0 0.05 0.27 0.27 99 1029.8
20180221231845 47 276 2.0 7.0 0.05 0.27 0.27 99 1029.8
20180221231544 47 275 1.0 7.0 0.05 0.27 0.27 99 1030.0
20180221231445 47 272 1.0 7.0 0.05 0.27 0.27 99 1029.8
20180221231145 47 266 3.0 7.0 0.05 0.27 0.27 99 1029.8
20180221231045 47 265 3.0 6.0 0.05 0.27 0.27 99 1029.8
20180221230945 47 262 1.0 4.0 0.04 0.26 0.26 99 1029.8
20180221230844 47 262 2.0 4.0 0.04 0.26 0.26 99 1029.9
20180221230645 47 261 1.0 4.0 0.04 0.26 0.26 99 1029.7
20180221230545 47 262 3.0 4.0 0.05 0.26 0.26 99 1029.9
20180221230445 47 267 2.0 3.0 0.05 0.26 0.26 99 1029.9
20180221230144 47 267 1.0 4.0 0.04 0.25 0.25 99 1029.9
20180221230045 47 268 1.0 4.0 0.04 0.25 0.25 99 1030.0
20180221225645 47 270 1.0 5.0 0.04 0.25 0.25 99 1029.3
20180221225446 47 270 2.0 5.0 0.04 0.25 0.25 99 1029.0
20180221225245 47 270 3.0 5.0 0.04 0.25 0.25 99 1029.0
20180221225145 47 270 2.0 5.0 0.04 0.25 0.25 99 1029.3
20180221225045 47 270 3.0 5.0 0.04 0.25 0.25 99 1029.1
20180221224845 47 270 3.0 5.0 0.04 0.25 0.25 99 1029.0
20180221224744 47 269 2.0 4.0 0.04 0.25 0.25 99 1029.3
20180221224645 47 264 2.0 4.0 0.04 0.25 0.25 99 1029.2
20180221224545 47 265 2.0 4.0 0.04 0.25 0.25 99 1029.5
20180221224445 47 265 3.0 4.0 0.04 0.25 0.25 99 1029.5
20180221224345 47 265 2.0 4.0 0.04 0.25 0.25 99 1029.4
20180221224245 47 265 1.0 4.0 0.02 0.24 0.24 99 1029.4
20180221224144 47 265 2.0 4.0 0.02 0.24 0.24 99 1029.5
20180221223744 47 256 1.0 4.0 0.02 0.24 0.24 99 1029.3
20180221223545 47 261 2.0 4.0 0.02 0.24 0.24 99 1029.1
20180221223445 47 259 2.0 3.0 0.02 0.24 0.24 99 1029.2
20180221222944 47 257 1.0 3.0 0.02 0.24 0.24 99 1029.3
20180221222845 47 260 2.0 3.0 0.01 0.22 0.22 99 1029.2
20180221222745 47 258 0.0 3.0 0.01 0.22 0.22 99 1029.3
20180221222545 47 250 1.0 3.0 0.01 0.22 0.22 99 1029.4
20180221222445 47 250 1.0 3.0 0.01 0.22 0.22 99 1029.3
20180221222245 47 258 1.0 4.0 0.01 0.22 0.22 99 1029.1
20180221222044 47 254 1.0 5.0 0.02 0.22 0.22 99 1029.0
20180221221944 47 260 0.0 5.0 0.02 0.22 0.22 99 1029.1
20180221221545 47 272 1.0 7.0 0.02 0.22 0.22 99 1028.7
20180221221345 47 272 3.0 7.0 0.02 0.22 0.22 99 1028.7
20180221221144 48 277 3.0 7.0 0.02 0.22 0.22 99 1028.7
20180221221044 47 275 2.0 7.0 0.02 0.22 0.22 99 1028.5
20180221220845 47 276 3.0 7.0 0.02 0.22 0.22 99 1028.2
20180221220645 48 271 2.0 6.0 0.01 0.21 0.21 99 1028.2
20180221220245 48 277 2.0 6.0 0.01 0.21 0.21 99 1028.1
20180221220045 48 277 2.0 6.0 0.01 0.21 0.21 99 1027.8
20180221215945 48 277 2.0 6.0 0.01 0.21 0.21 99 1028.0
20180221215845 48 277 3.0 6.0 0.01 0.21 0.21 99 1027.7
20180221215744 48 282 3.0 6.0 0.01 0.21 0.21 99 1027.8
20180221215644 48 283 2.0 5.0 0.01 0.21 0.21 99 1027.9
20180221215545 48 281 3.0 5.0 0.01 0.21 0.21 98 1028.0
20180221215345 47 275 3.0 5.0 0.01 0.21 0.21 98 1028.3
20180221215245 47 276 2.0 4.0 0.01 0.21 0.21 98 1028.5
20180221214545 47 267 2.0 4.0 0.01 0.21 0.21 98 1028.5
20180221214445 48 267 3.0 4.0 0.01 0.21 0.21 98 1028.5
20180221214345 48 267 3.0 4.0 0.01 0.21 0.21 98 1028.5
20180221214245 48 267 2.0 3.0 0.01 0.21 0.21 98 1028.5
20180221214145 47 266 2.0 3.0 0.01 0.21 0.21 98 1028.5
20180221213845 48 274 1.0 3.0 0.01 0.21 0.21 98 1028.3
20180221213745 48 274 2.0 3.0 0.01 0.21 0.21 98 1028.3
20180221213645 48 273 2.0 3.0 0.01 0.21 0.21 98 1028.3
20180221213545 47 273 3.0 5.0 0.01 0.21 0.21 98 1028.3
20180221213445 48 273 2.0 5.0 0.01 0.21 0.21 97 1028.5
20180221213344 48 273 2.0 5.0 0.01 0.21 0.21 97 1028.5
20180221213245 48 273 1.0 9.0 0.01 0.21 0.21 97 1028.3
20180221212945 48 273 2.0 9.0 0.01 0.21 0.21 97 1028.5
20180221212845 48 271 1.0 9.0 0.01 0.21 0.21 97 1028.5
20180221212744 48 271 2.0 9.0 0.01 0.21 0.21 97 1028.2
20180221212344 48 266 3.0 9.0 0.01 0.21 0.21 97 1028.1
20180221212145 48 262 2.0 5.0 0.00 0.20 0.20 97 1028.5
20180221211745 48 251 2.0 6.0 0.00 0.20 0.20 96 1028.5
20180221211444 48 250 2.0 6.0 0.00 0.20 0.20 96 1028.3
20180221211245 48 252 3.0 6.0 0.00 0.20 0.20 96 1028.4
20180221211145 48 252 2.0 6.0 0.00 0.20 0.20 96 1028.3
20180221211045 48 250 3.0 6.0 0.00 0.20 0.20 96 1028.3
20180221210745 48 266 4.0 5.0 0.00 0.20 0.20 95 1028.2
20180221210545 48 264 2.0 4.0 0.00 0.20 0.20 95 1028.4
20180221210244 48 266 3.0 4.0 0.00 0.20 0.20 95 1028.4
20180221210044 48 266 2.0 5.0 0.00 0.20 0.20 96 1028.3
20180221205845 48 266 1.0 5.0 0.00 0.20 0.20 96 1028.4
20180221205644 48 266 2.0 5.0 0.00 0.20 0.20 96 1028.4
20180221205544 48 267 1.0 5.0 0.00 0.20 0.20 96 1028.4
20180221205344 48 264 2.0 5.0 0.00 0.20 0.20 96 1028.2
20180221205245 48 263 3.0 5.0 0.00 0.20 0.20 96 1028.2
20180221205145 48 264 1.0 6.0 0.00 0.20 0.20 96 1028.3
20180221205045 48 264 2.0 6.0 0.00 0.20 0.20 96 1028.3
20180221204644 48 265 1.0 8.0 0.00 0.20 0.20 95 1028.3
20180221204444 48 265 3.0 8.0 0.00 0.20 0.20 96 1028.3
20180221204145 48 270 2.0 8.0 0.00 0.20 0.20 95 1028.1
20180221204045 48 270 2.0 8.0 0.00 0.20 0.20 96 1028.1
20180221203945 48 270 2.0 8.0 0.00 0.20 0.20 96 1027.9
20180221203845 48 270 4.0 8.0 0.00 0.20 0.20 96 1028.0
20180221203744 48 270 2.0 5.0 0.00 0.20 0.20 96 1027.9
20180221203545 48 270 2.0 7.0 0.00 0.20 0.20 97 1027.8
20180221203445 48 271 1.0 7.0 0.00 0.20 0.20 97 1027.9
20180221203145 48 274 2.0 7.0 0.00 0.20 0.20 96 1028.0
20180221203044 48 279 2.0 7.0 0.00 0.20 0.20 96 1027.8
20180221202845 48 277 3.0 7.0 0.00 0.20 0.20 96 1028.0
20180221202745 48 277 2.0 7.0 0.00 0.20 0.20 96 1028.1
20180221202645 48 277 5.0 7.0 0.00 0.20 0.20 97 1028.0
20180221202345 48 278 3.0 10.0 0.00 0.20 0.20 97 1028.1
20180221202045 48 279 3.0 10.0 0.00 0.20 0.20 96 1028.0
20180221201945 48 282 3.0 10.0 0.00 0.20 0.20 96 1028.0
20180221201645 48 280 2.0 10.0 0.00 0.20 0.20 97 1028.3
20180221201445 48 275 2.0 10.0 0.00 0.20 0.20 97 1028.2
20180221201345 48 271 5.0 10.0 0.00 0.20 0.20 97 1027.9
20180221201044 48 240 3.0 4.0 0.00 0.20 0.20 97 1028.2
20180221200945 48 235 1.0 3.0 0.00 0.20 0.20 97 1028.1
20180221200845 48 235 1.0 3.0 0.00 0.20 0.20 97 1028.1
20180221200745 48 232 2.0 7.0 0.00 0.20 0.20 96 1028.3
20180221200445 47 248 2.0 7.0 0.00 0.20 0.20 97 1028.2
20180221200344 47 249 2.0 7.0 0.00 0.20 0.20 97 1028.3
20180221200144 47 257 2.0 7.0 0.00 0.20 0.20 97 1028.3
20180221195945 47 263 2.0 7.0 0.00 0.20 0.20 97 1028.4
20180221195845 47 264 2.0 7.0 0.00 0.20 0.20 97 1028.1
20180221195745 48 268 2.0 7.0 0.00 0.20 0.20 97 1028.3
20180221195544 47 268 3.0 9.0 0.00 0.20 0.20 97 1028.4
20180221195444 48 263 5.0 9.0 0.00 0.20 0.20 97 1028.3
20180221195345 48 269 3.0 9.0 0.00 0.20 0.20 97 1027.9
20180221195245 48 271 3.0 9.0 0.00 0.20 0.20 97 1028.0
20180221195145 48 269 3.0 9.0 0.00 0.20 0.20 97 1028.1
20180221195045 48 265 3.0 9.0 0.00 0.20 0.20 97 1027.9
20180221194845 47 265 3.0 9.0 0.00 0.20 0.20 97 1028.0
20180221194745 47 264 3.0 9.0 0.00 0.20 0.20 97 1028.1
20180221194444 47 262 4.0 9.0 0.00 0.20 0.20 98 1028.0
20180221194345 48 252 7.0 9.0 0.00 0.20 0.20 98 1027.9
20180221194245 47 249 2.0 6.0 0.00 0.20 0.20 98 1028.1
20180221193744 47 244 3.0 7.0 0.00 0.20 0.20 99 1028.0
20180221193445 47 244 4.0 7.0 0.00 0.20 0.20 99 1028.0
20180221193245 47 252 3.0 7.0 0.00 0.20 0.20 99 1027.9
20180221193044 47 247 1.0 7.0 0.00 0.20 0.20 99 1027.8
20180221192744 47 261 3.0 7.0 0.00 0.20 0.20 99 1028.0
20180221192644 47 260 2.0 7.0 0.00 0.20 0.20 99 1027.9
20180221192345 47 268 3.0 8.0 0.00 0.20 0.20 99 1027.6
20180221192044 47 265 3.0 8.0 0.00 0.20 0.20 99 1027.5
20180221191844 48 265 3.0 8.0 0.00 0.20 0.20 99 1027.8
20180221191545 47 269 5.0 8.0 0.00 0.20 0.20 99 1027.7
20180221191445 48 264 3.0 7.0 0.00 0.20 0.20 99 1027.8
20180221191044 48 263 3.0 7.0 0.00 0.20 0.20 99 1027.6
20180221190844 48 255 4.0 8.0 0.00 0.20 0.20 99 1027.7
20180221190745 48 254 5.0 8.0 0.00 0.20 0.20 99 1027.7
20180221190645 48 254 4.0 8.0 0.00 0.20 0.20 99 1027.7
20180221190545 48 251 4.0 8.0 0.00 0.20 0.20 99 1027.7
20180221190445 48 251 3.0 8.0 0.00 0.20 0.20 99 1027.7
20180221190244 48 252 4.0 8.0 0.00 0.20 0.20 99 1027.6
20180221190144 48 251 3.0 8.0 0.00 0.20 0.20 99 1027.6
20180221190044 48 251 4.0 8.0 0.00 0.20 0.20 99 1027.9
20180221185845 49 255 5.0 7.0 0.00 0.20 0.20 99 1027.9
20180221185745 49 252 3.0 7.0 0.00 0.20 0.20 99 1027.7
20180221185644 48 252 4.0 7.0 0.00 0.20 0.20 99 1027.8
20180221185544 49 250 5.0 7.0 0.00 0.20 0.20 99 1027.8
20180221185444 49 254 4.0 7.0 0.00 0.20 0.20 99 1027.6
20180221185244 49 254 3.0 7.0 0.00 0.20 0.20 99 1027.7
20180221185045 49 263 4.0 7.0 0.00 0.20 0.20 99 1027.8
20180221184945 49 268 3.0 7.0 0.00 0.20 0.20 99 1027.5
20180221184744 49 267 4.0 7.0 0.00 0.20 0.20 99 1027.7
20180221184644 49 265 4.0 7.0 0.00 0.20 0.20 99 1027.8
20180221184545 50 267 5.0 6.0 0.00 0.20 0.20 99 1027.6
20180221184345 49 262 2.0 7.0 0.00 0.20 0.20 99 1027.8
20180221184245 49 261 5.0 7.0 0.00 0.20 0.20 99 1027.8
20180221184144 49 259 4.0 7.0 0.01 0.20 0.20 99 1027.9
20180221183945 50 258 3.0 7.0 0.01 0.20 0.20 99 1028.0
20180221183745 49 263 2.0 7.0 0.01 0.20 0.20 99 1027.9
20180221183444 49 258 3.0 5.0 0.01 0.20 0.20 99 1027.9
20180221183146 50 264 3.0 5.0 0.01 0.20 0.20 99 1027.9
20180221182945 50 255 3.0 5.0 0.01 0.20 0.20 99 1027.9
20180221182845 50 249 2.0 8.0 0.01 0.20 0.20 99 1027.9
20180221182745 50 245 3.0 8.0 0.01 0.20 0.20 99 1027.9
20180221182644 50 243 4.0 8.0 0.01 0.20 0.20 99 1027.8
20180221182544 50 251 3.0 8.0 0.01 0.20 0.20 99 1027.9
20180221182445 50 254 3.0 8.0 0.01 0.20 0.20 99 1027.9
20180221182345 50 253 1.0 8.0 0.01 0.20 0.20 99 1027.9
20180221182245 50 254 2.0 8.0 0.01 0.20 0.20 99 1027.9
20180221182144 50 255 2.0 8.0 0.01 0.20 0.20 99 1027.9
20180221182044 50 258 3.0 8.0 0.01 0.20 0.20 99 1027.8
20180221181944 50 261 3.0 8.0 0.01 0.20 0.20 99 1028.0
20180221181545 50 268 3.0 7.0 0.01 0.20 0.20 99 1027.9
20180221181445 50 268 4.0 7.0 0.01 0.20 0.20 99 1027.9
20180221181144 50 268 3.0 7.0 0.01 0.20 0.20 99 1027.8
20180221181044 50 268 2.0 6.0 0.01 0.20 0.20 99 1027.9
20180221180945 51 268 3.0 6.0 0.01 0.20 0.20 99 1027.8
20180221180845 51 263 3.0 8.0 0.01 0.20 0.20 99 1027.7
20180221180745 50 265 3.0 8.0 0.01 0.20 0.20 99 1027.8
20180221180344 50 264 3.0 8.0 0.01 0.20 0.20 99 1028.0
20180221180245 50 264 3.0 8.0 0.01 0.20 0.20 99 1027.9
20180221180145 50 264 3.0 8.0 0.01 0.20 0.20 99 1027.9
20180221180045 50 264 3.0 8.0 0.01 0.20 0.20 99 1027.9
20180221175844 51 267 3.0 7.0 0.01 0.20 0.20 99 1027.8
20180221175245 51 259 4.0 9.0 0.01 0.20 0.20 99 1027.9
20180221175145 51 255 5.0 9.0 0.01 0.20 0.20 99 1028.0
20180221174944 51 251 3.0 9.0 0.02 0.20 0.20 99 1028.2
20180221174845 51 253 3.0 9.0 0.02 0.20 0.20 99 1028.2
20180221174745 51 249 3.0 9.0 0.02 0.20 0.20 99 1028.3
20180221174545 51 239 3.0 9.0 0.02 0.20 0.20 99 1028.1
20180221174344 51 237 4.0 9.0 0.02 0.20 0.20 99 1028.1
20180221174244 52 238 3.0 6.0 0.01 0.19 0.19 98 1028.1
20180221174044 52 246 2.0 6.0 0.01 0.19 0.19 98 1028.1
20180221173944 52 244 3.0 7.0 0.01 0.19 0.19 98 1028.0
20180221173645 52 256 2.0 7.0 0.01 0.19 0.19 98 1028.0
20180221173444 52 248 2.0 7.0 0.01 0.19 0.19 98 1028.2
20180221173344 52 252 1.0 7.0 0.01 0.19 0.19 98 1028.0
20180221173244 52 256 3.0 7.0 0.01 0.19 0.19 98 1028.0
20180221172945 53 254 3.0 7.0 0.01 0.19 0.19 98 1028.1
20180221172845 53 249 4.0 6.0 0.01 0.19 0.19 98 1028.0
20180221172745 53 247 3.0 6.0 0.01 0.19 0.19 98 1028.1
20180221172444 53 253 3.0 5.0 0.01 0.19 0.19 98 1028.1
20180221172344 53 247 3.0 5.0 0.01 0.19 0.19 98 1028.1
20180221172244 53 239 2.0 8.0 0.01 0.19 0.19 98 1028.0
20180221171744 54 223 1.0 8.0 0.01 0.19 0.19 97 1028.1
20180221171644 54 222 1.0 8.0 0.01 0.19 0.19 97 1028.1
20180221171544 53 224 1.0 8.0 0.01 0.19 0.19 98 1027.9
20180221171244 54 231 5.0 8.0 0.01 0.19 0.19 97 1028.1
20180221171045 54 226 2.0 7.0 0.01 0.19 0.19 97 1028.2
20180221170945 54 226 1.0 7.0 0.01 0.19 0.19 97 1028.2
20180221170744 54 225 3.0 7.0 0.01 0.19 0.19 97 1028.1
20180221170445 54 221 1.0 7.0 0.01 0.19 0.19 97 1027.9
20180221170345 54 225 1.0 7.0 0.01 0.19 0.19 97 1028.0
20180221170145 55 226 1.0 7.0 0.01 0.19 0.19 97 1027.9
20180221165944 55 225 5.0 7.0 0.01 0.19 0.19 97 1027.8
20180221165845 56 231 3.0 7.0 0.01 0.19 0.19 97 1027.7
20180221165745 56 236 3.0 7.0 0.01 0.19 0.19 97 1027.7
20180221165645 56 234 1.0 7.0 0.01 0.19 0.19 97 1027.6
20180221165545 55 238 1.0 7.0 0.01 0.19 0.19 97 1027.7
20180221165445 56 241 3.0 7.0 0.01 0.19 0.19 98 1027.5
20180221165345 56 238 5.0 7.0 0.01 0.19 0.19 98 1027.4
20180221165244 57 244 4.0 7.0 0.01 0.19 0.19 98 1027.5
20180221165144 58 258 3.0 4.0 0.01 0.19 0.19 97 1027.5
20180221164645 58 270 0.0 1.0 0.00 0.18 0.18 97 1027.2
20180221164544 58 203 0.0 3.0 0.00 0.18 0.18 97 1027.6
20180221164344 58 220 0.0 3.0 0.00 0.18 0.18 97 1027.6
20180221163745 58 227 0.0 3.0 0.00 0.18 0.18 97 1027.4
20180221163645 58 224 0.0 3.0 0.00 0.18 0.18 97 1027.6
20180221163445 58 217 3.0 3.0 0.00 0.18 0.18 97 1027.2
20180221163345 58 205 1.0 3.0 0.00 0.18 0.18 97 1027.3
20180221163144 58 193 2.0 3.0 0.00 0.18 0.18 97 1027.3
20180221163044 58 185 1.0 3.0 0.00 0.18 0.18 97 1027.2
20180221162944 58 178 1.0 3.0 0.00 0.18 0.18 97 1027.4
20180221162844 58 171 0.0 3.0 0.00 0.18 0.18 97 1027.3
20180221162744 58 165 0.0 4.0 0.00 0.18 0.18 97 1027.4
20180221162545 58 163 1.0 4.0 0.00 0.18 0.18 97 1027.4
20180221162445 58 167 2.0 4.0 0.00 0.18 0.18 97 1027.3
20180221162344 58 178 1.0 4.0 0.00 0.18 0.18 97 1027.4
20180221162244 58 185 1.0 4.0 0.00 0.18 0.18 97 1027.5
20180221162144 58 183 1.0 4.0 0.00 0.18 0.18 97 1027.3
20180221162044 58 185 1.0 4.0 0.00 0.18 0.18 97 1027.4
20180221161945 58 175 2.0 5.0 0.00 0.18 0.18 97 1027.5
20180221161845 58 175 3.0 5.0 0.00 0.18 0.18 97 1027.2
20180221161644 58 191 0.0 5.0 0.00 0.18 0.18 97 1027.1
20180221160945 58 255 3.0 5.0 0.00 0.18 0.18 97 1027.0
20180221160845 57 270 1.0 3.0 0.00 0.18 0.18 97 1026.9
20180221160745 58 270 1.0 2.0 0.00 0.18 0.18 97 1026.7
20180221160644 58 274 1.0 2.0 0.00 0.18 0.18 97 1026.4
20180221160544 58 279 1.0 3.0 0.00 0.18 0.18 97 1026.4
20180221160344 58 316 1.0 5.0 0.00 0.18 0.18 97 1026.3
20180221160145 58 325 1.0 5.0 0.00 0.18 0.18 97 1026.3
20180221160044 58 315 1.0 5.0 0.00 0.18 0.18 97 1026.3
20180221155844 57 298 1.0 5.0 0.00 0.18 0.18 97 1026.4
20180221155744 57 289 1.0 5.0 0.00 0.18 0.18 98 1026.3
20180221155644 57 275 1.0 5.0 0.00 0.18 0.18 98 1026.4
20180221155546 57 259 2.0 5.0 0.00 0.18 0.18 98 1026.4
20180221155445 57 231 3.0 4.0 0.00 0.18 0.18 98 1026.5
20180221155345 58 236 1.0 3.0 0.00 0.18 0.18 98 1026.3
20180221155244 57 250 1.0 3.0 0.00 0.18 0.18 98 1026.1
20180221155144 58 255 1.0 3.0 0.00 0.18 0.18 98 1026.0
20180221155044 57 253 2.0 3.0 0.00 0.18 0.18 98 1026.0
20180221154944 57 251 3.0 3.0 0.00 0.18 0.18 98 1025.9
20180221154745 58 244 2.0 3.0 0.00 0.18 0.18 98 1026.1
20180221154545 57 248 2.0 3.0 0.00 0.18 0.18 98 1026.2
20180221154344 58 283 0.0 2.0 0.00 0.18 0.18 98 1026.2
20180221154044 58 255 1.0 2.0 0.00 0.18 0.18 98 1025.9
20180221153944 58 220 1.0 2.0 0.00 0.18 0.18 98 1026.0
20180221153845 58 181 0.0 1.0 0.00 0.18 0.18 98 1026.2
20180221153544 58 210 0.0 2.0 0.00 0.18 0.18 98 1026.5
20180221153344 58 236 0.0 2.0 0.00 0.18 0.18 98 1026.4
20180221153245 58 236 0.0 2.0 0.00 0.18 0.18 98 1026.2
20180221153144 57 227 0.0 2.0 0.00 0.18 0.18 98 1026.1
20180221153045 57 228 1.0 2.0 0.00 0.18 0.18 98 1026.0
20180221152944 58 238 1.0 2.0 0.00 0.18 0.18 98 1025.9
20180221152844 58 246 0.0 2.0 0.00 0.18 0.18 98 1026.0
20180221152744 58 248 0.0 2.0 0.00 0.18 0.18 98 1025.8
20180221152544 58 254 1.0 2.0 0.00 0.18 0.18 98 1025.6
20180221152445 58 252 1.0 2.0 0.00 0.18 0.18 98 1025.7
20180221152345 58 255 0.0 2.0 0.00 0.18 0.18 98 1026.0
20180221152245 58 255 1.0 2.0 0.00 0.18 0.18 98 1026.0
20180221152144 58 259 0.0 2.0 0.00 0.18 0.18 98 1025.9
20180221152045 58 261 0.0 2.0 0.00 0.18 0.18 98 1025.9
20180221151944 58 261 0.0 2.0 0.00 0.18 0.18 98 1025.9
20180221151744 58 260 1.0 2.0 0.00 0.18 0.18 98 1025.6
20180221151644 58 254 1.0 2.0 0.00 0.18 0.18 98 1025.8
20180221151444 57 253 1.0 2.0 0.00 0.18 0.18 99 1025.9
20180221151345 57 252 1.0 2.0 0.00 0.18 0.18 98 1025.9
20180221151245 57 255 0.0 2.0 0.00 0.18 0.18 99 1025.7
20180221151145 57 262 0.0 2.0 0.00 0.18 0.18 99 1025.9
20180221151044 57 266 0.0 2.0 0.00 0.18 0.18 98 1025.8
20180221150944 57 266 0.0 2.0 0.00 0.18 0.18 98 1025.6
20180221150744 57 263 0.0 3.0 0.00 0.18 0.18 99 1025.7
20180221150645 57 266 1.0 3.0 0.00 0.18 0.18 99 1025.5
20180221150444 57 266 1.0 3.0 0.01 0.18 0.18 98 1025.5
20180221150144 57 264 0.0 3.0 0.01 0.18 0.18 99 1025.5
20180221150045 57 266 0.0 3.0 0.01 0.18 0.18 99 1025.7
20180221145945 57 268 0.0 3.0 0.01 0.18 0.18 99 1025.6
20180221145344 58 275 0.0 3.0 0.01 0.18 0.18 98 1025.4
20180221145144 57 275 1.0 3.0 0.01 0.18 0.18 98 1025.4
20180221144844 57 271 1.0 2.0 0.01 0.18 0.18 98 1025.2
20180221144745 57 271 1.0 2.0 0.01 0.18 0.18 98 1025.3
20180221144644 57 264 0.0 2.0 0.01 0.18 0.18 99 1025.4
20180221144544 57 253 0.0 2.0 0.01 0.18 0.18 99 1025.7
20180221144345 57 237 0.0 2.0 0.01 0.18 0.18 99 1025.7
20180221144045 57 225 1.0 2.0 0.01 0.18 0.18 98 1025.5
20180221143945 57 221 1.0 2.0 0.01 0.18 0.18 99 1025.5
20180221143845 57 220 1.0 2.0 0.01 0.18 0.18 99 1025.5
20180221143744 57 222 0.0 2.0 0.01 0.18 0.18 99 1025.3
20180221143644 57 245 1.0 2.0 0.01 0.18 0.18 99 1025.5
20180221143445 57 295 0.0 3.0 0.01 0.18 0.18 99 1025.4
20180221143245 57 295 0.0 3.0 0.01 0.18 0.18 99 1025.4
20180221143145 57 295 0.0 3.0 0.01 0.18 0.18 99 1025.1
20180221142844 57 299 1.0 3.0 0.01 0.18 0.18 99 1025.3
20180221142744 57 300 0.0 3.0 0.02 0.18 0.18 99 1025.2
20180221142644 57 294 1.0 3.0 0.02 0.18 0.18 99 1025.1
20180221142544 57 287 2.0 3.0 0.02 0.18 0.18 99 1025.1
20180221142445 57 277 1.0 2.0 0.02 0.18 0.18 99 1025.1
20180221142345 57 270 1.0 2.0 0.02 0.18 0.18 99 1025.0
20180221142244 57 270 0.0 2.0 0.02 0.18 0.18 99 1024.9
20180221142144 57 270 0.0 2.0 0.02 0.18 0.18 99 1025.0
20180221142044 57 270 1.0 2.0 0.02 0.18 0.18 99 1024.9
20180221141944 57 270 0.0 2.0 0.02 0.18 0.18 99 1025.0
20180221141844 57 270 0.0 2.0 0.02 0.18 0.18 99 1024.8
20180221141544 57 270 1.0 2.0 0.02 0.18 0.18 99 1024.9
20180221141444 57 270 1.0 2.0 0.02 0.18 0.18 99 1024.7
20180221141345 57 270 1.0 2.0 0.02 0.18 0.18 98 1025.0
20180221141245 57 0 0.0 0.0 0.02 0.18 0.18 98 1025.0
20180221140545 56 245 0.0 1.0 0.01 0.17 0.17 99 1025.0
20180221140445 56 245 0.0 1.0 0.01 0.17 0.17 99 1025.0
20180221140244 56 245 0.0 1.0 0.01 0.17 0.17 99 1025.1
20180221140044 56 245 0.0 1.0 0.02 0.17 0.17 99 1025.0
20180221135844 56 245 0.0 1.0 0.02 0.17 0.17 99 1025.2
20180221135444 56 0 0.0 0.0 0.02 0.17 0.17 99 1025.1
20180221135044 56 0 0.0 0.0 0.04 0.17 0.17 98 1025.0
20180221134944 56 0 0.0 0.0 0.04 0.17 0.17 98 1025.0
20180221134844 56 270 0.0 1.0 0.05 0.17 0.17 98 1025.0
20180221134744 56 270 0.0 1.0 0.05 0.17 0.17 98 1025.0
20180221134644 56 270 0.0 1.0 0.06 0.17 0.17 98 1025.0
20180221134245 56 270 0.0 2.0 0.07 0.17 0.17 98 1024.9
20180221134144 56 270 0.0 2.0 0.07 0.17 0.17 98 1024.8
20180221133944 56 270 0.0 2.0 0.07 0.17 0.17 98 1024.7
20180221133846 56 270 0.0 2.0 0.07 0.17 0.17 98 1024.9
20180221133744 56 270 0.0 2.0 0.07 0.17 0.17 98 1024.7
20180221133545 56 270 1.0 2.0 0.07 0.17 0.17 98 1024.6
20180221133445 56 270 1.0 1.0 0.07 0.17 0.17 98 1024.6
20180221133345 56 264 0.0 1.0 0.07 0.17 0.17 98 1024.6
20180221133044 56 207 0.0 2.0 0.07 0.17 0.17 97 1024.6
20180221132844 56 204 0.0 2.0 0.06 0.15 0.15 97 1024.8
20180221132744 56 195 0.0 2.0 0.06 0.15 0.15 97 1024.8
20180221132244 56 208 1.0 2.0 0.06 0.15 0.15 97 1024.8
20180221132044 56 234 0.0 2.0 0.06 0.15 0.15 97 1024.7
20180221131845 56 234 0.0 2.0 0.06 0.15 0.15 97 1024.7
20180221131645 56 223 0.0 2.0 0.06 0.15 0.15 97 1024.6
20180221131544 56 224 0.0 2.0 0.06 0.15 0.15 97 1024.7
20180221131444 56 231 0.0 2.0 0.06 0.15 0.15 97 1024.5
20180221131344 56 234 1.0 2.0 0.06 0.15 0.15 97 1024.7
20180221131244 56 236 1.0 2.0 0.06 0.15 0.15 97 1024.6
20180221131144 56 230 1.0 2.0 0.06 0.15 0.15 97 1024.5
20180221130945 56 219 0.0 2.0 0.06 0.15 0.15 96 1024.4
20180221130644 56 241 0.0 2.0 0.06 0.15 0.15 96 1024.1
20180221130244 56 219 0.0 2.0 0.06 0.15 0.15 96 1024.0
20180221125944 56 270 1.0 1.0 0.05 0.14 0.14 96 1023.9
20180221125444 56 270 0.0 1.0 0.05 0.14 0.14 96 1023.8
20180221125344 56 270 0.0 1.0 0.05 0.14 0.14 96 1023.7
20180221124744 56 309 0.0 4.0 0.02 0.12 0.12 96 1023.3
20180221124544 56 305 1.0 4.0 0.00 0.09 0.09 96 1023.1
20180221124444 56 307 1.0 4.0 0.00 0.09 0.09 96 1023.0
20180221124344 56 309 1.0 4.0 0.00 0.09 0.09 96 1023.1
20180221123944 56 291 2.0 3.0 0.00 0.09 0.09 96 1022.6
20180221123744 56 269 1.0 2.0 0.00 0.09 0.09 96 1022.6
20180221123444 56 259 0.0 1.0 0.00 0.09 0.09 96 1022.7
20180221123245 56 264 0.0 2.0 0.00 0.09 0.09 96 1022.7
20180221123145 56 266 0.0 2.0 0.00 0.09 0.09 96 1022.5
20180221122944 56 267 1.0 2.0 0.00 0.09 0.09 96 1022.6
20180221122544 56 273 1.0 3.0 0.00 0.09 0.09 96 1022.5
20180221122345 56 273 1.0 3.0 0.01 0.09 0.09 96 1022.4
20180221121944 56 273 1.0 3.0 0.04 0.09 0.09 96 1022.5
20180221121744 56 270 1.0 3.0 0.05 0.09 0.09 96 1022.3
20180221121644 56 270 1.0 3.0 0.05 0.09 0.09 96 1022.3
20180221121345 56 270 1.0 2.0 0.05 0.09 0.09 95 1022.3
20180221121144 56 270 1.0 2.0 0.05 0.09 0.09 95 1022.2
20180221120944 56 270 1.0 2.0 0.09 0.09 0.09 95 1021.8
20180221120744 56 270 1.0 3.0 0.09 0.09 0.09 95 1022.1
20180221120544 56 270 1.0 3.0 0.09 0.09 0.09 95 1022.0
20180221120445 56 270 1.0 3.0 0.09 0.09 0.09 95 1022.0
20180221120344 56 270 1.0 5.0 0.09 0.09 0.09 95 1022.2
20180221120245 56 270 1.0 5.0 0.09 0.09 0.09 95 1022.2
20180221115944 56 270 1.0 5.0 0.09 0.09 0.09 95 1022.0
20180221115844 56 270 1.0 5.0 0.09 0.09 0.09 95 1022.0
20180221115644 56 270 3.0 6.0 0.09 0.09 0.09 95 1021.9
20180221115545 56 270 2.0 6.0 0.09 0.09 0.09 95 1022.1
20180221115444 56 270 2.0 6.0 0.09 0.09 0.09 95 1022.0
20180221114845 57 261 2.0 7.0 0.09 0.09 0.09 94 1022.0
20180221114545 57 258 3.0 7.0 0.09 0.09 0.09 94 1022.1
20180221113945 57 244 3.0 7.0 0.09 0.09 0.09 94 1021.8
20180221113844 57 249 3.0 7.0 0.09 0.09 0.09 94 1021.8
20180221113744 57 243 3.0 7.0 0.09 0.09 0.09 94 1021.9
20180221113644 57 239 2.0 7.0 0.09 0.09 0.09 94 1021.9
20180221113544 57 237 3.0 9.0 0.09 0.09 0.09 93 1022.0
20180221113145 57 229 3.0 10.0 0.09 0.09 0.09 93 1022.1
20180221113045 57 223 2.0 10.0 0.09 0.09 0.09 92 1022.0
20180221112844 57 214 4.0 10.0 0.09 0.09 0.09 91 1021.9
20180221112644 57 211 5.0 11.0 0.09 0.09 0.09 90 1021.8
20180221112244 58 224 4.0 11.0 0.07 0.07 0.07 89 1021.6
20180221112145 58 231 1.0 11.0 0.07 0.07 0.07 88 1021.7
20180221111944 58 233 3.0 11.0 0.06 0.06 0.06 88 1021.7
20180221111644 59 234 7.0 14.0 0.05 0.05 0.05 85 1021.5
20180221111444 60 207 4.0 17.0 0.05 0.05 0.05 83 1021.6
20180221111345 61 181 3.0 17.0 0.05 0.05 0.05 82 1021.7
20180221110944 66 115 3.0 17.0 0.00 0.00 0.00 74 1021.1
20180221110744 67 95 7.0 17.0 0.00 0.00 0.00 74 1021.0
20180221110645 68 87 10.0 17.0 0.00 0.00 0.00 74 1020.9
20180221110344 68 70 10.0 19.0 0.00 0.00 0.00 73 1020.3
20180221110144 68 64 9.0 19.0 0.00 0.00 0.00 74 1019.9
20180221110044 68 67 7.0 19.0 0.00 0.00 0.00 74 1019.6
20180221105944 68 69 6.0 19.0 0.00 0.00 0.00 73 1019.8
20180221105844 68 74 7.0 19.0 0.00 0.00 0.00 73 1019.9
20180221105745 68 74 8.0 19.0 0.00 0.00 0.00 73 1019.8
20180221105545 68 81 11.0 19.0 0.00 0.00 0.00 73 1019.9
20180221105444 68 88 9.0 19.0 0.00 0.00 0.00 73 1019.6
20180221105144 68 90 7.0 19.0 0.00 0.00 0.00 73 1019.7
20180221105044 68 90 11.0 19.0 0.00 0.00 0.00 74 1020.0
20180221104744 68 83 10.0 19.0 0.00 0.00 0.00 74 1019.6
20180221104645 68 86 7.0 19.0 0.00 0.00 0.00 74 1019.8
20180221104544 68 88 8.0 19.0 0.00 0.00 0.00 73 1019.5
20180221104244 67 88 8.0 17.0 0.00 0.00 0.00 74 1019.5
20180221104144 68 87 8.0 17.0 0.00 0.00 0.00 74 1019.5
20180221104044 68 92 9.0 17.0 0.00 0.00 0.00 74 1019.6
20180221103845 68 101 8.0 14.0 0.00 0.00 0.00 73 1019.5
20180221103744 67 100 8.0 14.0 0.00 0.00 0.00 73 1019.6
20180221103644 68 99 7.0 14.0 0.00 0.00 0.00 73 1019.6
20180221103444 68 92 8.0 14.0 0.00 0.00 0.00 72 1019.6
20180221102944 68 82 6.0 13.0 0.00 0.00 0.00 73 1019.6
20180221102644 68 82 5.0 15.0 0.00 0.00 0.00 72 1019.4
20180221102344 68 86 6.0 15.0 0.00 0.00 0.00 72 1019.5
20180221101944 68 83 9.0 20.0 0.00 0.00 0.00 73 1019.4
20180221101848 68 82 6.0 20.0 0.00 0.00 0.00 73 1019.3
20180221101444 68 88 9.0 20.0 0.00 0.00 0.00 72 1019.2
20180221101244 68 90 6.0 20.0 0.00 0.00 0.00 71 1019.4
20180221100844 68 95 7.0 13.0 0.00 0.00 0.00 71 1019.4
20180221100644 68 95 10.0 14.0 0.00 0.00 0.00 71 1019.6
20180221100345 68 95 10.0 14.0 0.00 0.00 0.00 71 1019.4
20180221100144 68 98 10.0 17.0 0.00 0.00 0.00 71 1019.3
20180221100045 68 100 10.0 17.0 0.00 0.00 0.00 71 1019.4
20180221095545 68 90 5.0 17.0 0.00 0.00 0.00 71 1019.3
20180221095344 68 96 7.0 19.0 0.00 0.00 0.00 71 1019.1
20180221095044 68 92 9.0 23.0 0.00 0.00 0.00 71 1019.2
20180221094944 68 92 9.0 23.0 0.00 0.00 0.00 71 1019.2
20180221094744 68 91 11.0 23.0 0.00 0.00 0.00 71 1019.3
20180221094645 68 87 9.0 23.0 0.00 0.00 0.00 71 1019.5
20180221094444 68 83 11.0 23.0 0.00 0.00 0.00 71 1019.2
20180221094244 68 78 10.0 23.0 0.00 0.00 0.00 71 1018.9
20180221094144 68 75 9.0 23.0 0.00 0.00 0.00 71 1019.0
20180221094044 68 68 15.0 23.0 0.00 0.00 0.00 71 1019.0
20180221093845 68 63 7.0 18.0 0.00 0.00 0.00 71 1019.1
20180221093746 68 64 11.0 18.0 0.00 0.00 0.00 71 1018.9
20180221093644 68 67 9.0 17.0 0.00 0.00 0.00 71 1018.9
20180221093549 68 68 9.0 17.0 0.00 0.00 0.00 71 1018.9
20180221093444 68 72 9.0 17.0 0.00 0.00 0.00 71 1018.9
20180221093344 68 77 8.0 17.0 0.00 0.00 0.00 71 1018.8
20180221093244 68 80 9.0 17.0 0.00 0.00 0.00 71 1018.9
20180221093144 68 83 9.0 15.0 0.00 0.00 0.00 71 1018.9
20180221093044 68 90 7.0 15.0 0.00 0.00 0.00 71 1018.8
20180221092945 68 90 10.0 15.0 0.00 0.00 0.00 71 1018.7
20180221092844 68 94 9.0 15.0 0.00 0.00 0.00 71 1018.7
20180221092744 68 87 8.0 15.0 0.00 0.00 0.00 71 1018.9
20180221092644 68 82 8.0 15.0 0.00 0.00 0.00 72 1018.8
20180221091849 67 68 9.0 15.0 0.00 0.00 0.00 72 1018.8
20180221091753 68 76 7.0 14.0 0.00 0.00 0.00 72 1019.1
20180221091644 68 81 9.0 14.0 0.00 0.00 0.00 72 1019.1
20180221091344 68 80 7.0 15.0 0.00 0.00 0.00 73 1018.8
20180221091244 68 81 5.0 15.0 0.00 0.00 0.00 73 1019.1
20180221090944 67 82 5.0 15.0 0.00 0.00 0.00 72 1019.2
20180221090844 67 84 5.0 15.0 0.00 0.00 0.00 72 1019.2
20180221090744 67 87 6.0 15.0 0.00 0.00 0.00 72 1019.1
20180221090445 68 76 5.0 15.0 0.00 0.00 0.00 71 1019.2
20180221085944 67 73 9.0 13.0 0.00 0.00 0.00 72 1019.3
20180221085844 67 70 9.0 13.0 0.00 0.00 0.00 72 1019.2
20180221085644 67 65 4.0 13.0 0.00 0.00 0.00 72 1019.1
20180221085545 67 70 7.0 13.0 0.00 0.00 0.00 73 1019.2
20180221085445 67 73 5.0 13.0 0.00 0.00 0.00 73 1019.1
20180221085344 67 74 5.0 13.0 0.00 0.00 0.00 73 1019.3
20180221085244 67 73 5.0 13.0 0.00 0.00 0.00 73 1019.3
20180221084744 67 65 6.0 15.0 0.00 0.00 0.00 72 1019.3
20180221084644 67 64 7.0 15.0 0.00 0.00 0.00 72 1019.2
20180221084544 67 58 4.0 15.0 0.00 0.00 0.00 72 1019.0
20180221084444 67 56 7.0 15.0 0.00 0.00 0.00 72 1019.2
20180221084244 67 57 9.0 15.0 0.00 0.00 0.00 72 1019.1
20180221084144 67 62 7.0 14.0 0.00 0.00 0.00 72 1019.2
20180221083444 67 79 9.0 14.0 0.00 0.00 0.00 72 1019.2
20180221083244 67 76 10.0 13.0 0.00 0.00 0.00 71 1019.1
20180221083044 67 64 9.0 14.0 0.00 0.00 0.00 71 1019.2
20180221082944 67 58 7.0 14.0 0.00 0.00 0.00 71 1019.2
20180221082744 67 52 7.0 14.0 0.00 0.00 0.00 71 1019.2
20180221082644 67 56 6.0 14.0 0.00 0.00 0.00 71 1019.3
20180221082544 67 57 9.0 14.0 0.00 0.00 0.00 71 1019.1
20180221082444 67 59 9.0 14.0 0.00 0.00 0.00 71 1019.2
20180221082344 67 58 8.0 14.0 0.00 0.00 0.00 71 1019.1
20180221081844 67 71 7.0 12.0 0.00 0.00 0.00 72 1019.2
20180221081744 67 76 9.0 12.0 0.00 0.00 0.00 72 1019.2
20180221081645 67 75 8.0 12.0 0.00 0.00 0.00 72 1019.3
20180221081544 67 74 5.0 12.0 0.00 0.00 0.00 72 1019.3
20180221081244 67 82 4.0 12.0 0.00 0.00 0.00 72 1019.3
20180221081144 67 81 7.0 12.0 0.00 0.00 0.00 72 1019.2
20180221081044 66 88 7.0 9.0 0.00 0.00 0.00 72 1019.4
20180221080744 67 76 5.0 11.0 0.00 0.00 0.00 72 1019.2
20180221080645 67 71 4.0 11.0 0.00 0.00 0.00 72 1019.5
20180221080444 67 61 4.0 11.0 0.00 0.00 0.00 72 1019.3
20180221080344 67 62 4.0 11.0 0.00 0.00 0.00 72 1019.4
20180221080144 67 60 4.0 11.0 0.00 0.00 0.00 72 1019.3
20180221080044 67 57 4.0 11.0 0.00 0.00 0.00 72 1019.5
20180221075944 67 60 4.0 15.0 0.00 0.00 0.00 72 1019.4
20180221075845 66 65 6.0 15.0 0.00 0.00 0.00 71 1019.3
20180221075644 67 73 5.0 15.0 0.00 0.00 0.00 71 1019.1
20180221075544 67 71 7.0 15.0 0.00 0.00 0.00 71 1019.1
20180221075444 67 71 4.0 15.0 0.00 0.00 0.00 71 1019.3
20180221075245 67 67 7.0 15.0 0.00 0.00 0.00 71 1019.3
20180221075144 67 70 6.0 15.0 0.00 0.00 0.00 71 1019.3
20180221075044 67 74 10.0 15.0 0.00 0.00 0.00 71 1019.5
20180221074944 67 70 7.0 13.0 0.00 0.00 0.00 71 1019.3
20180221074844 67 67 6.0 13.0 0.00 0.00 0.00 71 1019.3
20180221074744 67 63 7.0 13.0 0.00 0.00 0.00 71 1019.4
20180221074343 67 69 5.0 12.0 0.00 0.00 0.00 70 1019.4
20180221074244 67 71 7.0 12.0 0.00 0.00 0.00 70 1019.4
20180221074144 67 68 7.0 11.0 0.00 0.00 0.00 70 1019.5
20180221074044 67 67 5.0 13.0 0.00 0.00 0.00 70 1019.5
20180221073844 67 66 7.0 14.0 0.00 0.00 0.00 70 1019.4
20180221073744 67 69 6.0 14.0 0.00 0.00 0.00 70 1019.4
20180221073644 67 72 5.0 14.0 0.00 0.00 0.00 70 1019.6
20180221073544 67 71 5.0 14.0 0.00 0.00 0.00 70 1019.3
20180221073444 67 72 8.0 14.0 0.00 0.00 0.00 70 1019.6
20180221073244 67 70 5.0 14.0 0.00 0.00 0.00 70 1019.5
20180221073144 67 69 7.0 14.0 0.00 0.00 0.00 70 1019.6
20180221073044 67 70 9.0 14.0 0.00 0.00 0.00 70 1019.6
20180221072944 67 76 7.0 13.0 0.00 0.00 0.00 70 1019.4
20180221072444 67 79 5.0 13.0 0.00 0.00 0.00 70 1019.4
20180221072344 67 85 10.0 13.0 0.00 0.00 0.00 70 1019.4
20180221072244 67 86 6.0 10.0 0.00 0.00 0.00 70 1019.5
20180221072046 67 87 6.0 11.0 0.00 0.00 0.00 70 1019.4
20180221071844 67 83 6.0 12.0 0.00 0.00 0.00 70 1019.6
20180221071744 67 81 6.0 12.0 0.00 0.00 0.00 70 1019.5
20180221071644 67 76 5.0 12.0 0.00 0.00 0.00 70 1019.5
20180221071544 67 80 5.0 12.0 0.00 0.00 0.00 70 1019.4
20180221071444 67 73 6.0 12.0 0.00 0.00 0.00 70 1019.4
20180221070644 67 66 8.0 15.0 0.00 0.00 0.00 70 1019.6
20180221070444 67 68 7.0 15.0 0.00 0.00 0.00 69 1019.4
20180221070344 67 72 7.0 15.0 0.00 0.00 0.00 69 1019.3
20180221065544 68 59 9.0 15.0 0.00 0.00 0.00 69 1019.4
20180221065444 67 61 9.0 15.0 0.00 0.00 0.00 69 1019.4
20180221065245 68 60 9.0 15.0 0.00 0.00 0.00 69 1019.3
20180221065044 68 57 7.0 15.0 0.00 0.00 0.00 69 1019.2
20180221064844 67 55 9.0 15.0 0.00 0.00 0.00 69 1019.4
20180221064644 68 57 7.0 14.0 0.00 0.00 0.00 69 1019.5
20180221064445 68 53 8.0 14.0 0.00 0.00 0.00 68 1019.5
20180221064344 68 51 8.0 14.0 0.00 0.00 0.00 69 1019.2
20180221063944 67 55 7.0 14.0 0.00 0.00 0.00 70 1019.4
20180221063844 68 58 5.0 14.0 0.00 0.00 0.00 69 1019.4
20180221063544 68 65 6.0 14.0 0.00 0.00 0.00 69 1019.4
20180221063444 68 63 7.0 14.0 0.00 0.00 0.00 69 1019.6
20180221063344 68 62 4.0 14.0 0.00 0.00 0.00 68 1019.4
20180221063144 68 62 9.0 14.0 0.00 0.00 0.00 68 1019.2
20180221063044 68 59 9.0 14.0 0.00 0.00 0.00 68 1019.3
20180221062944 68 63 7.0 14.0 0.00 0.00 0.00 68 1019.2
20180221062644 68 53 7.0 14.0 0.00 0.00 0.00 68 1019.3
20180221062344 68 61 7.0 14.0 0.00 0.00 0.00 68 1019.4
20180221062244 68 64 6.0 14.0 0.00 0.00 0.00 68 1019.4
20180221062144 68 69 9.0 14.0 0.00 0.00 0.00 68 1019.5
20180221061844 68 73 8.0 13.0 0.00 0.00 0.00 68 1019.5
20180221061743 68 75 8.0 13.0 0.00 0.00 0.00 68 1019.5
20180221061244 68 82 5.0 13.0 0.00 0.00 0.00 69 1019.6
20180221061144 68 83 4.0 13.0 0.00 0.00 0.00 68 1019.5
20180221061044 68 85 8.0 13.0 0.00 0.00 0.00 69 1019.6
20180221060944 68 85 5.0 10.0 0.00 0.00 0.00 68 1019.4
20180221060744 68 89 7.0 12.0 0.00 0.00 0.00 68 1019.5
20180221060647 68 94 7.0 12.0 0.00 0.00 0.00 68 1019.3
20180221060444 68 91 7.0 12.0 0.00 0.00 0.00 68 1019.6
20180221060144 68 82 7.0 13.0 0.00 0.00 0.00 68 1019.6
20180221055944 68 82 7.0 15.0 0.00 0.00 0.00 68 1019.7
20180221055844 68 82 5.0 15.0 0.00 0.00 0.00 68 1019.6
20180221055545 68 71 7.0 18.0 0.00 0.00 0.00 68 1019.6
20180221055444 68 73 3.0 18.0 0.00 0.00 0.00 68 1019.8
20180221055244 68 75 8.0 18.0 0.00 0.00 0.00 67 1019.7
20180221055144 68 79 7.0 18.0 0.00 0.00 0.00 67 1019.5
20180221054944 68 76 9.0 18.0 0.00 0.00 0.00 67 1019.9
20180221054645 68 67 8.0 16.0 0.00 0.00 0.00 67 1019.7
20180221054544 68 68 8.0 16.0 0.00 0.00 0.00 67 1019.9
20180221054344 68 70 9.0 15.0 0.00 0.00 0.00 68 1019.8
20180221054144 68 68 6.0 15.0 0.00 0.00 0.00 67 1019.8
20180221053943 68 66 7.0 15.0 0.00 0.00 0.00 67 1019.9
20180221053844 68 66 7.0 15.0 0.00 0.00 0.00 67 1019.9
20180221053744 68 74 9.0 15.0 0.00 0.00 0.00 67 1019.9
20180221053344 68 80 9.0 14.0 0.00 0.00 0.00 67 1020.0
20180221053243 68 83 10.0 14.0 0.00 0.00 0.00 67 1019.9
20180221053044 68 82 5.0 13.0 0.00 0.00 0.00 67 1020.1
20180221052844 68 83 5.0 13.0 0.00 0.00 0.00 67 1019.9
20180221052544 68 85 7.0 17.0 0.00 0.00 0.00 67 1019.8
20180221052044 68 79 7.0 17.0 0.00 0.00 0.00 67 1019.9
20180221051844 68 72 7.0 17.0 0.00 0.00 0.00 68 1020.0
20180221051744 68 66 4.0 15.0 0.00 0.00 0.00 67 1019.9
20180221051544 68 64 3.0 15.0 0.00 0.00 0.00 68 1020.1
20180221051244 68 67 9.0 15.0 0.00 0.00 0.00 67 1020.1
20180221051144 68 66 8.0 15.0 0.00 0.00 0.00 66 1019.9
20180221050844 68 69 7.0 15.0 0.00 0.00 0.00 66 1020.0
20180221050744 69 74 7.0 16.0 0.00 0.00 0.00 66 1020.1
20180221050544 68 78 8.0 16.0 0.00 0.00 0.00 67 1019.7
20180221050444 68 79 5.0 16.0 0.00 0.00 0.00 67 1020.1
20180221050244 68 79 7.0 16.0 0.00 0.00 0.00 66 1019.9
20180221045944 68 79 11.0 16.0 0.00 0.00 0.00 66 1020.0
20180221045743 68 75 9.0 16.0 0.00 0.00 0.00 67 1019.9
20180221045644 68 75 5.0 16.0 0.00 0.00 0.00 67 1020.1
20180221045444 68 74 8.0 16.0 0.00 0.00 0.00 66 1019.9
20180221045344 68 73 6.0 16.0 0.00 0.00 0.00 66 1019.9
20180221045244 69 77 5.0 16.0 0.00 0.00 0.00 66 1019.9
20180221045144 68 78 9.0 16.0 0.00 0.00 0.00 66 1019.9
20180221045043 68 74 7.0 14.0 0.00 0.00 0.00 66 1020.0
20180221044943 68 73 6.0 17.0 0.00 0.00 0.00 66 1020.1
20180221044844 68 79 9.0 17.0 0.00 0.00 0.00 66 1019.9
20180221044544 68 64 10.0 17.0 0.00 0.00 0.00 66 1019.9
20180221044444 68 65 7.0 17.0 0.00 0.00 0.00 66 1019.9
20180221044344 68 69 8.0 17.0 0.00 0.00 0.00 66 1020.0
20180221044143 68 70 9.0 17.0 0.00 0.00 0.00 66 1020.2
20180221044045 69 71 7.0 17.0 0.00 0.00 0.00 66 1019.9
20180221043944 68 73 12.0 17.0 0.00 0.00 0.00 66 1019.9
20180221043744 68 71 6.0 13.0 0.00 0.00 0.00 66 1019.9
20180221043644 69 77 6.0 13.0 0.00 0.00 0.00 66 1020.1